Wind_Speed
19 17 14 11 12 11 9 7 6 6 7 5 6 5 6 10 12 13 13 14 14 14 13 13 13 13 13 14 14 14 14 13 13 13 13 13 12 10 9 7 6 6 6 6
21 19 16 15 14 13 11 9 8 8 8 5 7 7 7 7 10 13 13 13 13 13 13 13 12 13 13 13 13 14 14 14 13 13 13 13 13 11 10 8 7 7 7 6
22 18 18 18 15 14 12 11 11 10 8 6 7 9 11 8 8 11 13 13 12 12 12 12 12 12 12 13 13 13 14 13 14 14 14 14 12 11 10 9 8 8 7 7
24 22 21 20 18 15 13 14 14 12 8 7 8 12 14 10 7 10 12 12 12 11 12 12 12 12 12 12 12 13 13 13 13 14 14 13 12 12 11 10 9 9 8 8
25 24 22 21 19 16 15 16 15 12 9 9 8 12 15 12 8 10 11 12 12 11 11 12 12 12 12 12 12 13 13 13 13 14 13 12 12 12 11 10 10 9 9 9
26 24 24 22 21 19 18 16 13 10 10 11 9 11 14 12 9 11 12 12 11 11 12 11 11 11 12 12 12 13 13 13 13 13 13 12 12 11 11 10 10 10 10 10
27 25 25 23 22 22 20 16 13 12 12 13 12 11 14 12 13 13 13 11 11 10 11 11 11 10 11 12 13 13 13 13 13 12 13 12 11 10 11 11 10 10 10 10
26 26 25 25 25 23 21 20 17 14 12 12 11 11 14 13 14 13 12 11 11 11 10 10 10 10 11 11 12 13 13 13 13 13 12 12 11 11 11 11 10 10 10 11
22 23 24 25 25 23 21 21 18 16 14 13 11 13 14 14 13 13 12 10 11 10 10 10 10 10 11 11 12 13 13 12 12 12 13 13 12 11 12 12 11 11 11 11
23 22 24 25 25 26 24 21 20 20 18 15 12 13 15 15 14 14 12 11 11 10 10 11 10 10 11 11 12 13 12 12 12 12 12 13 12 12 12 11 11 11 12 12
28 25 24 26 26 25 25 25 24 22 20 17 14 15 17 16 15 15 14 12 11 10 9 11 11 11 11 12 12 12 12 12 12 11 12 12 12 13 12 12 12 12 13 13
31 28 26 27 27 25 25 25 25 25 23 20 18 17 16 16 15 16 15 14 11 11 11 12 12 11 11 11 11 12 12 12 12 12 13 13 12 13 13 12 13 13 14 14
32 32 29 27 27 27 27 27 25 23 22 21 20 21 19 18 16 17 17 15 13 13 12 13 13 12 12 12 12 12 13 13 13 13 13 13 13 13 13 14 14 14 15 15
34 34 33 29 26 25 26 26 26 26 25 23 22 22 20 19 20 19 18 16 15 15 14 14 14 14 13 12 12 13 13 14 14 14 14 14 14 14 15 15 15 16 16 16
35 35 35 32 28 26 24 24 24 26 26 24 21 23 22 21 21 19 19 18 17 16 15 15 15 14 13 13 13 13 14 14 14 15 15 15 15 15 16 16 17 17 17 17
36 36 36 35 32 30 27 24 24 25 25 25 22 22 23 25 22 21 20 19 18 18 17 16 15 15 15 15 14 15 15 15 16 16 16 16 16 17 17 18 18 18 18 18
36 36 36 36 33 30 30 28 25 25 25 26 26 26 25 25 24 23 22 21 20 19 18 17 16 16 16 16 16 16 17 17 17 17 17 17 17 18 18 19 19 19 19 19
36 37 36 34 33 34 31 28 27 27 26 26 26 26 27 27 26 25 24 23 22 20 19 18 17 17 18 18 18 18 18 18 18 19 19 19 19 19 19 20 20 19 19 19
35 36 36 35 33 33 31 29 27 28 29 29 29 29 29 29 29 28 27 26 24 21 20 19 18 18 19 19 19 19 19 20 20 20 21 20 20 20 21 21 20 20 20 19
35 35 36 35 33 32 30 29 28 29 31 30 31 30 30 30 29 28 28 27 25 23 22 21 20 20 20 20 20 20 20 21 21 22 22 22 21 22 21 21 20 20 20 20
35 36 36 35 33 31 30 29 28 31 32 31 32 32 32 31 30 28 27 27 26 25 24 23 21 21 21 21 21 22 22 22 23 23 22 22 22 23 22 22 22 21 21 22
34 35 36 36 34 33 31 31 33 33 32 32 32 33 33 32 32 30 29 28 26 26 25 24 23 23 23 24 24 24 23 23 24 24 23 23 23 23 23 23 23 22 22 22
34 35 35 36 38 37 34 34 35 36 35 34 34 33 33 33 32 32 30 28 28 28 27 26 25 25 25 25 25 25 25 25 25 25 25 24 24 24 24 24 24 24 23 24
36 36 37 37 37 37 37 37 37 37 36 36 35 34 34 33 32 32 31 31 30 30 29 28 28 27 27 27 26 26 26 26 26 26 26 25 24 24 25 25 25 25 25 25
37 38 39 41 39 38 38 37 38 37 36 36 35 34 33 33 34 33 32 31 31 30 30 29 29 29 28 28 27 27 27 27 27 27 26 26 25 26 26 27 27 27 26 26
38 38 39 40 41 39 38 38 38 37 35 36 35 34 33 33 34 32 31 31 30 30 30 30 30 29 29 29 29 28 28 28 28 27 27 27 27 27 28 27 27 27 28 28
Wind_Direction
203 200 196 204 215 207 210 212 230 236 252 258 281 294 327 341 351 356 0 6 9 12 11 14 17 18 19 19 19 20 18 19 17 13 12 12 8 7 7 5 5 357 352 347
206 206 205 213 223 219 206 208 229 239 252 246 270 289 292 314 341 346 351 358 2 7 11 12 12 12 14 16 17 16 16 14 12 9 9 10 11 12 12 7 1 353 351 350
209 210 213 214 219 223 220 219 227 234 244 249 267 283 282 281 326 337 343 350 356 2 8 8 6 8 10 12 12 10 8 7 7 4 5 11 16 14 11 8 3 357 352 347
212 212 217 219 218 218 226 229 225 228 231 236 257 270 284 291 311 330 340 344 347 356 2 3 2 5 8 8 8 5 3 4 4 3 4 10 12 9 6 4 1 355 352 347
216 216 219 220 219 218 223 232 231 232 231 232 238 262 275 283 291 313 329 335 337 345 356 359 359 3 4 3 1 0 359 0 1 359 1 4 5 3 1 359 357 357 359 353
216 221 223 220 218 219 224 229 228 227 233 247 242 252 276 286 287 298 311 322 329 336 343 351 354 357 358 358 359 359 357 357 358 357 358 359 359 360 360 0 357 356 360 358
219 222 224 221 218 221 220 219 220 232 240 247 241 241 259 271 285 293 301 307 315 324 332 341 347 349 353 354 356 356 356 357 357 355 356 357 356 359 1 1 360 358 359 359
226 226 225 224 220 222 221 213 217 230 247 254 247 240 246 258 276 285 290 295 304 312 321 330 338 342 346 348 350 351 351 351 352 355 356 355 353 356 357 357 356 355 355 355
225 234 230 227 223 219 220 216 218 234 247 255 250 250 259 261 269 275 276 283 293 306 311 318 326 334 339 342 345 346 346 348 351 355 354 352 351 350 351 352 352 351 351 349
211 224 230 234 226 219 213 218 219 225 233 244 253 260 256 260 269 274 276 280 286 294 302 309 317 323 329 335 340 343 345 345 348 351 352 351 351 350 351 350 347 346 346 343
208 216 222 229 227 220 217 215 216 221 225 233 247 256 255 253 265 274 275 274 281 287 296 305 309 315 321 327 333 338 340 340 342 344 346 347 348 346 343 345 343 342 341 340
212 215 219 227 229 222 221 223 220 222 223 223 234 251 252 257 261 266 268 269 273 279 287 295 302 308 315 321 327 332 336 336 338 339 340 342 346 348 347 344 342 340 337 335
216 216 217 223 227 226 221 221 222 228 233 232 233 247 255 256 251 259 264 265 267 272 278 287 296 303 309 314 319 324 329 331 332 332 333 335 337 339 341 341 341 340 337 333
219 219 216 217 224 230 231 223 219 219 226 233 234 243 250 255 249 251 259 265 269 273 276 282 291 298 303 308 311 317 322 325 325 326 328 329 330 331 333 332 333 334 333 331
220 222 219 215 215 219 229 231 227 223 220 226 236 246 248 252 251 250 255 264 266 270 273 277 284 290 294 300 304 309 315 319 320 321 323 325 326 326 327 326 326 329 331 331
221 222 221 219 216 218 219 223 228 229 224 223 227 239 247 253 253 254 257 261 262 265 268 274 277 283 287 292 297 302 307 312 314 316 318 320 321 322 322 322 324 325 327 329
224 224 224 222 219 222 224 220 222 226 228 225 225 233 240 248 253 257 259 263 261 260 266 270 271 276 281 286 291 297 301 306 309 311 313 315 316 317 319 321 322 323 324 325
225 223 223 222 220 224 224 223 224 227 228 227 229 233 237 242 249 255 257 258 258 259 262 266 268 272 277 281 286 292 296 301 305 307 309 311 312 313 315 318 319 320 320 321
225 224 223 221 223 228 227 225 223 225 228 228 229 232 236 241 246 251 254 254 254 256 261 265 268 270 274 279 283 287 290 297 302 305 306 306 308 309 312 314 315 317 318 321
224 223 222 220 222 224 227 228 226 225 228 227 230 233 236 239 243 247 251 253 254 255 258 262 267 270 272 278 280 284 289 294 298 301 304 304 304 307 309 311 313 315 317 319
223 223 222 220 223 226 225 221 223 227 228 229 231 233 235 237 242 246 250 253 253 254 257 261 266 271 272 276 280 283 286 291 295 298 300 302 303 304 306 308 309 310 312 313
223 223 222 220 222 225 226 224 224 228 230 230 231 234 237 240 243 246 249 251 253 253 256 260 264 269 273 276 279 282 284 288 291 294 296 298 300 301 302 304 306 307 310 311
219 220 220 221 221 222 223 227 228 230 233 234 234 237 240 241 243 246 249 250 252 254 255 258 263 268 272 276 278 281 284 286 289 292 294 296 296 297 299 301 303 305 307 308
220 218 218 220 220 221 223 228 231 232 234 235 236 239 242 243 247 248 249 249 250 252 254 257 261 266 271 274 277 279 283 286 289 290 292 294 294 296 298 300 301 302 304 306
218 217 219 221 221 223 225 229 232 234 236 237 239 242 243 244 246 247 248 247 249 252 255 258 261 265 269 272 274 277 280 284 287 289 290 292 293 295 296 297 300 302 303 306
216 217 219 220 223 226 228 231 232 234 236 237 239 241 242 243 245 246 248 250 251 254 256 259 261 264 267 271 273 275 278 282 285 287 288 290 291 293 295 298 299 301 303 304
Height
5920 5924 5927 5930 5932 5934 5936 5938 5939 5939 5938 5940 5939 5938 5937 5935 5934 5932 5930 5928 5927 5925 5923 5922 5920 5919 5917 5916 5914 5913 5912 5910 5908 5907 5905 5903 5902 5901 5899 5898 5897 5897 5896 5896
5918 5921 5925 5927 5929 5931 5934 5937 5938 5939 5938 5939 5939 5938 5936 5935 5935 5933 5931 5930 5928 5926 5924 5923 5921 5920 5918 5916 5915 5914 5913 5911 5909 5907 5905 5904 5902 5901 5900 5898 5897 5897 5896 5895
5915 5920 5922 5925 5928 5930 5933 5935 5937 5937 5939 5939 5939 5938 5936 5934 5934 5933 5932 5930 5928 5927 5925 5924 5922 5921 5919 5917 5916 5915 5914 5912 5910 5908 5905 5904 5903 5901 5900 5899 5898 5897 5896 5895
5911 5916 5919 5922 5926 5928 5931 5933 5934 5935 5937 5938 5939 5938 5935 5933 5933 5932 5931 5930 5929 5927 5926 5924 5923 5921 5920 5918 5917 5916 5914 5913 5911 5909 5907 5905 5903 5902 5900 5899 5898 5897 5896 5895
5908 5912 5915 5919 5923 5926 5929 5930 5932 5933 5934 5936 5936 5936 5933 5931 5930 5931 5931 5930 5929 5926 5926 5925 5923 5922 5920 5919 5918 5916 5915 5913 5911 5910 5908 5906 5904 5902 5901 5899 5898 5897 5896 5895
5905 5909 5911 5915 5920 5922 5925 5927 5929 5930 5932 5934 5935 5935 5932 5931 5930 5931 5930 5930 5929 5928 5926 5925 5923 5922 5921 5919 5918 5917 5915 5913 5912 5910 5908 5906 5905 5903 5901 5899 5898 5897 5896 5895
5900 5904 5907 5911 5915 5919 5922 5925 5927 5929 5931 5932 5933 5933 5932 5931 5931 5931 5930 5929 5929 5927 5926 5925 5924 5922 5921 5920 5918 5916 5915 5913 5912 5910 5908 5906 5905 5903 5901 5900 5898 5897 5896 5895
5895 5899 5903 5907 5911 5915 5918 5922 5925 5928 5930 5930 5930 5931 5930 5930 5931 5930 5929 5929 5928 5927 5926 5925 5924 5923 5921 5920 5918 5916 5915 5913 5911 5910 5908 5906 5905 5903 5902 5900 5899 5897 5896 5895
5893 5896 5900 5903 5906 5911 5915 5918 5923 5926 5927 5927 5928 5928 5927 5928 5928 5928 5928 5927 5926 5925 5925 5924 5923 5922 5921 5919 5918 5916 5914 5913 5911 5909 5908 5906 5904 5903 5901 5900 5899 5897 5896 5894
5888 5892 5895 5898 5902 5905 5910 5915 5919 5921 5924 5925 5926 5925 5924 5924 5926 5926 5926 5926 5925 5924 5923 5923 5922 5921 5920 5919 5917 5916 5914 5912 5911 5909 5908 5906 5904 5902 5901 5899 5898 5897 5895 5893
5882 5887 5891 5894 5896 5901 5905 5909 5913 5916 5920 5923 5924 5925 5922 5920 5922 5923 5924 5923 5924 5923 5922 5921 5921 5920 5919 5918 5916 5915 5913 5912 5910 5909 5907 5906 5904 5902 5900 5899 5897 5896 5894 5892
5875 5881 5885 5889 5893 5896 5901 5904 5909 5912 5914 5917 5920 5923 5919 5918 5919 5919 5920 5920 5921 5921 5921 5920 5919 5919 5918 5917 5916 5914 5913 5911 5910 5908 5907 5905 5903 5901 5900 5898 5896 5894 5893 5891
5869 5875 5879 5884 5889 5891 5894 5899 5904 5908 5912 5914 5917 5918 5915 5916 5917 5917 5917 5917 5918 5919 5919 5918 5918 5917 5916 5915 5914 5913 5912 5910 5909 5907 5906 5904 5902 5901 5899 5897 5895 5893 5891 5889
5862 5867 5873 5879 5883 5887 5889 5894 5898 5903 5907 5909 5912 5912 5911 5912 5912 5912 5914 5915 5915 5916 5916 5916 5915 5915 5914 5914 5913 5912 5911 5909 5908 5906 5905 5903 5901 5899 5898 5896 5893 5891 5889 5887
5855 5860 5866 5871 5876 5881 5885 5889 5893 5897 5901 5905 5908 5907 5906 5907 5906 5906 5909 5911 5912 5912 5913 5913 5913 5912 5912 5912 5911 5910 5909 5908 5906 5905 5903 5901 5899 5898 5896 5894 5892 5889 5887 5884
5848 5853 5859 5864 5869 5874 5878 5883 5887 5891 5895 5899 5903 5903 5903 5902 5902 5902 5905 5907 5908 5909 5909 5910 5910 5910 5910 5909 5909 5908 5907 5906 5905 5903 5901 5900 5898 5896 5894 5892 5889 5887 5884 5882
5841 5846 5852 5857 5863 5867 5871 5877 5882 5886 5889 5893 5896 5899 5900 5898 5898 5899 5901 5903 5903 5904 5905 5906 5906 5906 5906 5906 5906 5906 5905 5904 5902 5901 5899 5897 5895 5893 5891 5889 5887 5884 5881 5879
5834 5839 5845 5851 5857 5860 5867 5872 5876 5880 5883 5887 5889 5892 5893 5894 5894 5895 5897 5898 5899 5901 5901 5901 5902 5903 5903 5903 5903 5902 5902 5901 5899 5898 5896 5894 5893 5891 5888 5886 5884 5881 5879 5876
5827 5833 5838 5844 5849 5854 5860 5864 5869 5873 5876 5879 5882 5884 5886 5888 5889 5890 5891 5893 5894 5895 5897 5898 5898 5898 5899 5899 5899 5899 5898 5897 5896 5894 5893 5891 5889 5887 5885 5883 5880 5878 5875 5873
5820 5826 5832 5837 5842 5848 5854 5858 5861 5866 5868 5872 5874 5877 5879 5881 5882 5884 5885 5887 5889 5890 5891 5892 5893 5894 5894 5894 5894 5894 5894 5893 5892 5891 5889 5887 5885 5883 5881 5879 5877 5874 5872 5870
5813 5818 5823 5829 5835 5840 5845 5849 5854 5858 5861 5864 5867 5869 5872 5874 5876 5878 5879 5881 5884 5885 5886 5887 5888 5889 5889 5889 5889 5889 5889 5889 5888 5886 5885 5883 5881 5880 5878 5876 5873 5871 5869 5866
5807 5812 5817 5822 5827 5834 5838 5841 5845 5848 5852 5856 5859 5861 5864 5868 5870 5871 5873 5875 5877 5879 5881 5882 5883 5884 5884 5884 5884 5884 5884 5883 5882 5881 5879 5878 5877 5875 5873 5872 5869 5867 5864 5862
5799 5805 5810 5815 5820 5824 5829 5832 5836 5840 5845 5848 5851 5855 5858 5860 5862 5864 5867 5869 5871 5874 5875 5876 5877 5878 5879 5879 5879 5878 5878 5878 5877 5875 5874 5873 5872 5870 5868 5867 5865 5862 5860 5858
5791 5796 5801 5805 5810 5815 5819 5824 5828 5832 5836 5840 5844 5847 5850 5853 5855 5858 5861 5863 5864 5867 5869 5870 5871 5872 5872 5873 5873 5872 5872 5871 5871 5870 5869 5867 5866 5865 5863 5861 5860 5857 5855 5853
5782 5788 5793 5797 5802 5806 5811 5815 5820 5824 5829 5833 5836 5839 5843 5845 5847 5850 5853 5855 5857 5860 5861 5863 5864 5865 5866 5866 5866 5866 5866 5865 5865 5864 5863 5861 5860 5859 5857 5855 5853 5851 5849 5847
5774 5779 5784 5788 5794 5798 5802 5806 5811 5816 5820 5824 5828 5832 5834 5837 5840 5842 5844 5847 5850 5852 5854 5855 5857 5858 5858 5859 5859 5859 5859 5859 5858 5857 5856 5855 5854 5853 5851 5849 5847 5845 5843 5840